period_start,C,m1,H,J0,J1,J2,J3,J4,J5,JA,JB,JC,JD,JJ,JK,JN,#
2017-09-01 00:03:59,0.00,0.13,0.00,24.40,27.99,30.39,13.65,43.99,1005.87,2030.14,3526.00,3042.30,3479.90,599.97,586.98,23.20,0000 0000 0000 0000 000000
2017-09-01 00:09:00,0.01,0.13,0.00,24.40,27.99,30.39,13.66,44.01,1005.87,2030.16,3526.00,3042.27,3479.76,600.19,587.21,23.25,0000 0000 0000 0000 000000
2017-09-01 00:14:01,0.00,0.13,0.00,24.41,28.00,30.39,13.70,44.11,1005.89,2030.06,3525.98,3042.06,3479.18,600.01,586.98,23.30,0000 0000 0000 0000 000000
2017-09-01 00:19:02,0.01,0.13,0.00,24.42,28.00,30.39,13.66,43.87,1005.87,2030.03,3525.80,3042.01,3479.01,600.00,586.89,23.35,0000 0000 0000 0000 000000
2017-09-01 00:24:03,0.00,0.13,0.00,24.43,28.00,30.41,13.69,43.98,1005.87,2030.05,3525.69,3042.00,3479.00,599.90,586.81,23.40,0000 0000 0000 0000 000000
2017-09-01 00:29:05,0.00,0.13,0.00,24.41,28.00,30.41,13.57,43.71,1005.87,2030.06,3525.26,3042.00,3479.00,599.58,586.54,23.45,0000 0000 0000 0000 000000
2017-09-01 00:34:06,-0.00,0.13,0.00,24.42,28.00,30.40,13.71,43.97,1005.87,2030.02,3525.02,3042.00,3479.00,600.25,587.30,23.50,0000 0000 0000 0000 000000
2017-09-01 00:39:07,0.00,0.13,0.00,24.43,28.00,30.40,13.63,43.66,1005.87,2030.04,3525.00,3041.98,3478.97,599.79,586.87,23.55,0000 0000 0000 0000 000000
2017-09-01 00:44:09,0.01,0.13,0.00,24.45,28.00,30.40,13.66,43.88,1005.87,2030.02,3524.99,3041.95,3478.76,600.07,587.00,23.60,0000 0000 0000 0000 000000
2017-09-01 00:49:10,0.01,0.14,0.00,24.44,28.01,30.39,13.69,43.65,1005.86,2030.06,3524.91,3041.89,3478.43,599.99,586.82,23.65,0000 0000 0000 0000 000000
2017-09-01 00:54:11,0.02,0.14,0.00,24.43,28.02,30.41,13.60,43.91,1005.87,2030.05,3524.51,3041.58,3478.10,599.58,586.49,23.70,0000 0000 0000 0000 000000
2017-09-01 00:59:12,0.00,0.14,0.00,24.44,28.02,30.40,13.72,43.84,1005.86,2030.01,3524.06,3041.17,3478.01,600.11,587.02,23.75,0000 0000 0000 0000 000000
2017-09-01 01:04:14,-0.00,0.14,0.00,24.44,28.02,30.40,13.65,43.83,1005.86,2030.02,3524.00,3041.04,3478.00,599.95,586.86,23.80,0000 0000 0000 0000 000000
2017-09-01 01:09:15,0.00,0.14,0.00,24.46,28.02,30.41,13.64,43.69,1005.85,2030.04,3524.00,3041.01,3478.00,599.95,586.78,23.85,0000 0000 0000 0000 000000
2017-09-01 01:14:17,-0.00,0.14,0.00,24.46,28.02,30.42,13.64,43.76,1005.80,2030.03,3523.97,3041.00,3477.98,599.86,586.72,23.90,0000 0000 0000 0000 000000
2017-09-01 01:19:18,0.01,0.14,0.00,24.48,28.02,30.42,13.68,43.88,1005.67,2030.03,3523.74,3041.00,3477.75,599.89,586.51,23.95,0000 0000 0000 0000 000000
2017-09-01 01:24:19,0.01,0.14,0.00,24.45,28.02,30.42,13.67,43.73,1005.49,2030.02,3523.15,3040.98,3477.20,599.70,586.25,24.00,0000 0000 0000 0000 000000
2017-09-01 01:29:20,0.00,0.14,0.00,24.49,28.02,30.42,13.69,43.86,1005.43,2030.05,3523.10,3040.99,3477.16,600.55,587.02,24.05,0000 0000 0000 0000 000000
2017-09-01 01:34:21,0.00,0.14,0.00,24.51,28.03,30.43,13.59,43.73,1005.41,2030.03,3523.00,3040.88,3477.01,599.75,586.34,24.10,0000 0000 0000 0000 000000
2017-09-01 01:39:23,0.01,0.14,0.00,24.49,28.04,30.43,13.56,43.69,1005.40,2030.04,3522.99,3040.59,3477.00,599.72,586.10,24.15,0000 0000 0000 0000 000000
2017-09-01 01:44:24,0.00,0.14,0.00,24.52,28.05,30.43,13.69,43.78,1005.39,2030.03,3522.95,3040.25,3477.00,599.94,586.45,24.20,0000 0000 0000 0000 000000
2017-09-01 01:49:25,0.00,0.14,0.00,24.51,28.05,30.43,13.63,43.60,1005.39,2030.01,3522.80,3040.07,3476.98,599.69,586.07,24.25,0000 0000 0000 0000 000000
2017-09-01 01:54:27,0.01,0.14,0.00,24.51,28.05,30.44,13.70,43.64,1005.36,2030.02,3522.35,3040.01,3476.89,600.14,586.69,24.30,0000 0000 0000 0000 000000
2017-09-01 01:59:28,0.01,0.14,0.00,24.50,28.05,30.44,13.61,43.52,1005.08,2030.01,3522.02,3040.00,3476.40,600.24,586.38,24.35,0000 0000 0000 0000 000000
2017-09-01 02:04:30,0.00,0.14,0.00,24.54,28.05,30.43,13.64,43.59,1005.01,2030.01,3522.00,3040.00,3476.06,600.07,586.17,24.40,0000 0000 0000 0000 000000
2017-09-01 02:09:31,0.00,0.14,0.00,24.56,28.05,30.44,13.57,43.52,1005.06,2030.01,3521.98,3040.00,3476.01,599.70,586.09,24.45,0000 0000 0000 0000 000000
2017-09-01 02:14:33,0.00,0.14,0.00,24.54,28.07,30.44,13.66,43.53,1005.00,2030.00,3521.97,3040.00,3476.00,600.08,586.11,24.50,0000 0000 0000 0000 000000
2017-09-01 02:19:33,0.01,0.14,0.00,24.56,28.07,30.46,13.64,43.63,1004.93,2030.00,3521.48,3039.92,3475.99,600.08,586.16,24.55,0000 0000 0000 0000 000000
2017-09-01 02:24:35,0.01,0.14,0.00,24.54,28.07,30.45,13.65,43.49,1004.91,2030.00,3521.02,3039.64,3475.95,600.21,586.19,24.60,0000 0000 0000 0000 000000
2017-09-01 02:29:36,-0.00,0.14,0.00,24.54,28.07,30.46,13.68,43.56,1004.90,2030.00,3521.00,3039.68,3475.87,599.92,585.92,24.65,0000 0000 0000 0000 000000
2017-09-01 02:34:38,0.02,0.14,0.00,24.55,28.08,30.47,13.67,43.59,1004.90,2030.02,3521.00,3039.20,3475.52,599.99,585.92,24.70,0000 0000 0000 0000 000000
2017-09-01 02:39:39,0.00,0.14,0.00,24.57,28.10,30.46,13.49,43.54,1004.90,2030.00,3520.97,3039.04,3475.06,599.38,585.54,24.75,0000 0000 0000 0000 000000
2017-09-01 02:44:40,0.01,0.15,0.00,24.55,28.10,30.46,13.61,43.63,1004.90,2030.01,3520.44,3039.00,3475.00,600.00,586.01,24.80,0000 0000 0000 0000 000000
2017-09-01 02:49:41,0.00,0.15,0.00,24.56,28.10,30.48,13.68,43.68,1004.89,2030.00,3520.03,3038.98,3475.00,600.42,586.50,24.85,0000 0000 0000 0000 000000
2017-09-01 02:54:43,0.01,0.15,0.00,24.57,28.10,30.47,13.57,43.52,1004.86,2030.01,3519.96,3038.81,3474.83,599.86,585.89,24.90,0000 0000 0000 0000 000000
2017-09-01 02:59:44,0.03,0.15,0.00,24.58,28.11,30.48,13.67,43.84,1004.88,2030.00,3519.44,3038.17,3474.16,599.88,585.96,24.95,0000 0000 0000 0000 000000
2017-09-01 03:04:45,0.00,0.15,0.00,24.59,28.12,30.48,13.70,43.74,1004.89,2030.01,3519.02,3038.03,3474.00,599.85,585.86,25.00,0000 0000 0000 0000 000000
2017-09-01 03:09:46,-0.00,0.15,0.00,24.62,28.12,30.49,13.69,43.77,1004.86,2030.00,3519.00,3038.00,3473.99,600.32,586.14,25.05,0000 0000 0000 0000 000000
2017-09-01 03:14:47,0.01,0.15,0.00,24.63,28.12,30.50,13.62,43.43,1004.78,2030.00,3518.73,3037.98,3473.81,599.89,585.80,25.10,0000 0000 0000 0000 000000
2017-09-01 03:19:48,0.02,0.15,0.00,24.64,28.13,30.51,13.67,43.64,1004.52,2030.00,3518.04,3037.86,3473.14,600.28,586.10,25.15,0000 0000 0000 0000 000000
2017-09-01 03:24:49,0.01,0.15,0.00,24.62,28.15,30.50,13.69,43.72,1004.45,2030.00,3518.00,3037.34,3473.00,600.49,586.24,25.20,0000 0000 0000 0000 000000
2017-09-01 03:29:51,0.00,0.15,0.00,24.65,28.15,30.50,13.55,43.63,1004.43,2030.00,3517.85,3037.05,3473.00,600.00,585.59,25.25,0000 0000 0000 0000 000000
2017-09-01 03:34:52,0.02,0.15,0.00,24.64,28.15,30.52,13.61,43.46,1004.42,2030.00,3517.12,3037.00,3472.65,599.72,585.50,25.30,0000 0000 0000 0000 000000
2017-09-01 03:39:53,0.01,0.15,0.00,24.67,28.16,30.52,13.58,43.60,1004.41,2030.00,3516.95,3036.93,3472.05,599.86,585.69,25.35,0000 0000 0000 0000 000000
2017-09-01 03:44:55,0.02,0.15,0.00,24.68,28.17,30.53,13.56,43.77,1004.41,2029.99,3516.36,3036.49,3472.00,599.76,585.32,25.40,0000 0000 0000 0000 000000
2017-09-01 03:49:56,0.01,0.15,0.00,24.66,28.17,30.54,13.61,43.73,1004.39,2029.99,3516.00,3036.03,3471.99,599.80,585.41,25.45,0000 0000 0000 0000 000000
2017-09-01 03:54:58,0.00,0.15,0.00,24.70,28.17,30.53,13.63,43.52,1004.41,2029.99,3516.00,3036.01,3471.84,600.22,585.74,25.50,0000 0000 0000 0000 000000
2017-09-01 03:59:59,0.01,0.16,0.00,24.70,28.17,30.54,13.63,43.55,1004.38,2029.99,3515.74,3036.00,3471.24,599.79,585.26,25.55,0000 0000 0000 0000 000000
2017-09-01 04:05:01,0.01,0.16,0.00,24.68,28.19,30.55,13.63,43.46,1004.15,2029.99,3515.16,3035.99,3471.02,599.81,585.21,25.60,0000 0000 0000 0000 000000
2017-09-01 04:10:02,0.04,0.16,0.00,24.71,28.20,30.57,13.57,43.37,1003.98,2029.99,3514.94,3035.34,3470.39,599.69,584.90,25.65,0000 0000 0000 0000 000000
2017-09-01 04:15:03,0.01,0.16,0.00,24.73,28.20,30.56,13.53,43.28,1003.96,2029.99,3514.44,3035.00,3470.01,599.59,584.87,25.70,0000 0000 0000 0000 000000
2017-09-01 04:20:05,0.00,0.16,0.00,24.73,28.20,30.57,13.60,43.56,1003.94,2029.99,3514.04,3034.99,3470.00,600.23,585.50,25.76,0000 0000 0000 0000 000000
2017-09-01 04:25:06,0.00,0.16,0.00,24.71,28.21,30.57,13.66,43.56,1003.93,2029.99,3513.99,3034.97,3469.98,600.07,585.25,25.81,0000 0000 0000 0000 000000
2017-09-01 04:30:07,0.03,0.16,0.00,24.71,28.22,30.58,13.60,43.38,1003.92,2029.99,3513.64,3034.67,3469.55,599.99,584.95,25.86,0000 0000 0000 0000 000000
2017-09-01 04:35:08,0.01,0.16,0.00,24.72,28.22,30.59,13.56,43.47,1003.92,2029.99,3513.04,3034.16,3469.04,599.99,585.16,25.91,0000 0000 0000 0000 000000
2017-09-01 04:40:09,0.00,0.16,0.00,24.73,28.22,30.59,13.67,43.54,1003.92,2029.99,3513.00,3034.02,3469.00,600.36,585.61,25.96,0000 0000 0000 0000 000000
2017-09-01 04:45:11,0.00,0.16,0.00,24.73,28.23,30.60,13.57,43.55,1003.92,2029.99,3512.99,3034.00,3469.00,599.76,584.90,26.01,0000 0000 0000 0000 000000
2017-09-01 04:50:12,0.03,0.16,0.00,24.73,28.24,30.60,13.52,43.39,1003.92,2029.99,3512.26,3033.77,3468.52,600.03,585.29,26.06,0000 0000 0000 0000 000000
2017-09-01 04:55:13,0.02,0.16,0.00,24.74,28.25,30.61,13.68,43.59,1003.92,2029.99,3511.97,3033.05,3468.01,600.00,585.18,26.11,0000 0000 0000 0000 000000
2017-09-01 05:00:14,0.00,0.16,0.00,24.75,28.25,30.62,13.62,43.48,1003.90,2029.99,3511.77,3033.00,3467.98,599.87,585.01,26.16,0000 0000 0000 0000 000000
2017-09-01 05:05:16,0.01,0.17,0.00,24.77,28.25,30.62,13.63,43.48,1003.80,2029.98,3511.08,3032.99,3467.53,599.97,585.00,26.21,0000 0000 0000 0000 000000
2017-09-01 05:10:17,0.00,0.17,0.00,24.75,28.25,30.62,13.64,43.36,1003.72,2029.99,3511.00,3032.94,3467.05,600.21,585.11,26.26,0000 0000 0000 0000 000000
2017-09-01 05:15:18,0.03,0.17,0.00,24.77,28.26,30.62,13.60,43.31,1003.76,2029.98,3510.45,3032.24,3467.00,600.30,585.32,26.31,0000 0000 0000 0000 000000
2017-09-01 05:20:19,0.00,0.17,0.00,24.78,28.27,30.63,13.60,43.19,1003.61,2029.98,3510.03,3032.01,3466.85,600.16,585.05,26.36,0000 0000 0000 0000 000000
2017-09-01 05:25:21,0.01,0.17,0.00,24.77,28.27,30.63,13.62,43.25,1003.56,2029.95,3509.93,3032.00,3466.16,600.19,585.09,26.41,0000 0000 0000 0000 000000
2017-09-01 05:30:22,0.01,0.17,0.00,24.79,28.27,30.64,13.52,43.18,1003.47,2029.96,3509.67,3031.99,3466.00,599.49,584.39,26.46,0000 0000 0000 0000 000000
2017-09-01 05:35:24,0.01,0.17,0.00,24.79,28.29,30.64,13.57,43.33,1003.46,2029.95,3509.12,3031.78,3465.99,599.98,584.81,26.51,0000 0000 0000 0000 000000
2017-09-01 05:40:25,0.01,0.17,0.00,24.81,28.30,30.65,13.55,43.23,1003.44,2029.94,3509.00,3031.27,3465.90,599.82,584.44,26.56,0000 0000 0000 0000 000000
2017-09-01 05:45:26,0.01,0.17,0.00,24.82,28.30,30.66,13.63,43.31,1003.43,2029.93,3508.99,3031.04,3465.33,600.11,584.84,26.61,0000 0000 0000 0000 000000
2017-09-01 05:50:28,-0.00,0.17,0.00,24.81,28.30,30.65,13.64,43.30,1003.43,2029.82,3508.71,3031.00,3465.03,599.94,584.69,26.66,0000 0000 0000 0000 000000
2017-09-01 05:55:29,-0.01,0.17,0.00,24.84,28.31,30.67,13.58,43.31,1003.43,2029.66,3508.05,3030.98,3465.00,599.62,584.32,26.71,0000 0000 0000 0000 000000
2017-09-01 06:00:31,0.00,0.17,0.00,24.84,28.32,30.68,13.58,43.23,1003.43,2029.59,3508.00,3030.82,3464.93,599.81,584.45,26.76,0000 0000 0000 0000 000000
2017-09-01 06:05:32,0.02,0.17,0.00,24.84,28.32,30.67,13.58,43.16,1003.43,2029.54,3507.91,3030.28,3464.46,599.78,584.38,26.81,0000 0000 0000 0000 000000
2017-09-01 06:10:33,0.02,0.17,0.00,24.86,28.32,30.68,13.62,43.23,1003.43,2029.60,3507.73,3030.07,3464.11,600.30,584.79,26.86,0000 0000 0000 0000 000000
2017-09-01 06:15:34,0.00,0.17,0.00,24.86,28.32,30.68,13.62,43.28,1003.43,2029.63,3507.20,3030.02,3464.02,600.02,584.63,26.91,0000 0000 0000 0000 000000
2017-09-01 06:20:36,0.00,0.17,0.00,24.84,28.34,30.69,13.60,43.27,1003.43,2029.45,3507.00,3030.00,3463.99,599.88,584.51,26.96,0000 0000 0000 0000 000000
2017-09-01 06:25:37,-0.02,0.17,0.00,24.84,28.35,30.70,13.57,43.36,1003.43,2029.37,3506.98,3029.99,3463.96,600.11,584.62,27.01,0000 0000 0000 0000 000000
2017-09-01 06:30:38,0.02,0.17,0.00,24.85,28.35,30.69,13.59,43.38,1003.43,2029.38,3506.72,3029.84,3463.54,600.24,584.76,27.06,0000 0000 0000 0000 000000
2017-09-01 06:35:39,0.01,0.17,0.00,24.86,28.35,30.71,13.60,43.47,1003.38,2029.20,3506.06,3029.14,3463.04,600.11,584.67,27.11,0000 0000 0000 0000 000000
2017-09-01 06:40:41,0.00,0.17,0.00,24.87,28.35,30.71,13.63,43.49,1003.26,2029.13,3505.96,3029.00,3462.98,599.84,584.30,27.16,0000 0000 0000 0000 000000
2017-09-01 06:45:42,0.02,0.18,0.00,24.86,28.37,30.71,13.58,43.44,1003.24,2029.14,3505.23,3028.95,3462.38,599.82,584.35,27.21,0000 0000 0000 0000 000000
2017-09-01 06:50:43,0.03,0.18,0.00,24.87,28.37,30.71,13.60,43.46,1003.19,2029.15,3504.99,3028.21,3462.00,600.15,584.57,27.26,0000 0000 0000 0000 000000
2017-09-01 06:55:44,0.02,0.18,0.00,24.88,28.37,30.71,13.57,43.34,1003.17,2029.19,3504.32,3028.00,3461.80,600.19,584.63,27.31,0000 0000 0000 0000 000000
2017-09-01 07:00:45,0.00,0.18,0.00,24.89,28.37,30.72,13.59,43.52,1003.04,2029.07,3504.00,3027.92,3461.08,600.05,584.40,27.36,0000 0000 0000 0000 000000
2017-09-01 07:05:47,0.02,0.18,0.00,24.87,28.37,30.74,13.64,43.35,1003.02,2029.07,3503.94,3027.35,3461.00,599.99,584.23,27.41,0000 0000 0000 0000 000000
2017-09-01 07:10:48,0.02,0.18,0.00,24.87,28.38,30.73,13.52,43.35,1002.96,2029.10,3503.19,3027.02,3460.62,599.60,584.07,27.46,0000 0000 0000 0000 000000
2017-09-01 07:15:49,0.00,0.18,0.00,24.89,28.39,30.74,13.65,43.47,1002.96,2029.12,3502.97,3026.97,3460.05,600.08,584.23,27.51,0000 0000 0000 0000 000000
2017-09-01 07:20:50,0.03,0.18,0.00,24.89,28.40,30.73,13.56,43.58,1002.96,2029.06,3502.39,3026.47,3459.88,599.84,584.04,27.56,0000 0000 0000 0000 000000
2017-09-01 07:25:51,0.01,0.18,0.00,24.88,28.40,30.74,13.60,43.51,1002.94,2029.04,3501.98,3026.00,3459.10,600.06,584.35,27.61,0000 0000 0000 0000 000000
2017-09-01 07:30:53,0.02,0.18,0.00,24.89,28.40,30.75,13.59,43.38,1002.94,2029.04,3501.30,3025.85,3458.96,600.00,584.31,27.66,0000 0000 0000 0000 000000
2017-09-01 07:35:54,0.03,0.19,0.00,24.90,28.40,30.74,13.60,43.54,1002.94,2029.03,3500.98,3025.11,3458.21,600.13,584.40,27.71,0000 0000 0000 0000 000000
2017-09-01 07:40:55,0.01,0.19,0.00,24.92,28.42,30.76,13.56,43.33,1002.94,2029.03,3500.39,3024.97,3457.96,599.78,584.08,27.76,0000 0000 0000 0000 000000
2017-09-01 07:45:56,0.04,0.19,0.00,24.92,28.42,30.77,13.60,43.31,1002.94,2029.03,3499.94,3024.28,3457.19,599.92,584.15,27.81,0000 0000 0000 0000 000000
2017-09-01 07:50:58,0.01,0.19,0.00,24.90,28.42,30.77,13.57,43.42,1002.91,2029.02,3499.13,3024.00,3456.98,600.04,584.36,27.86,0000 0000 0000 0000 000000
2017-09-01 07:55:59,0.02,0.19,0.00,24.91,28.42,30.77,13.53,43.39,1002.91,2029.03,3498.98,3023.74,3456.34,599.89,584.12,27.91,0000 0000 0000 0000 000000
2017-09-01 08:01:00,0.02,0.19,0.00,24.89,28.43,30.77,13.60,43.33,1002.90,2029.01,3498.28,3023.04,3455.99,600.11,584.30,27.96,0000 0000 0000 0000 000000
2017-09-01 08:06:01,0.01,0.19,0.00,24.91,28.44,30.77,13.60,43.39,1002.88,2029.03,3497.90,3022.91,3455.45,600.09,584.36,28.01,0000 0000 0000 0000 000000
2017-09-01 08:11:03,0.03,0.20,0.00,24.93,28.45,30.78,13.56,43.40,1002.88,2029.02,3497.10,3022.13,3455.00,599.69,583.86,28.06,0000 0000 0000 0000 000000
2017-09-01 08:16:04,0.02,0.20,0.00,24.92,28.45,30.78,13.60,43.47,1002.91,2029.01,3496.73,3021.97,3454.43,600.09,584.42,28.11,0000 0000 0000 0000 000000
2017-09-01 08:21:05,0.03,0.20,0.00,24.91,28.45,30.78,13.60,43.52,1002.81,2029.00,3496.03,3021.17,3453.98,600.18,584.34,28.16,0000 0000 0000 0000 000000
2017-09-01 08:26:07,0.01,0.20,0.00,24.92,28.45,30.78,13.65,43.37,1002.73,2029.00,3495.74,3021.00,3453.46,600.15,584.19,28.21,0000 0000 0000 0000 000000
2017-09-01 08:31:08,0.02,0.20,0.00,24.92,28.45,30.79,13.55,43.42,1002.60,2029.00,3495.03,3020.67,3453.01,599.99,584.12,28.26,0000 0000 0000 0000 000000
2017-09-01 08:36:09,0.02,0.20,0.00,24.90,28.45,30.80,13.56,43.42,1002.50,2029.00,3494.72,3020.04,3452.72,600.05,584.02,28.31,0000 0000 0000 0000 000000
2017-09-01 08:41:10,0.01,0.20,0.00,24.94,28.46,30.80,13.58,43.38,1002.48,2029.00,3494.04,3019.99,3452.04,599.73,583.56,28.36,0000 0000 0000 0000 000000
2017-09-01 08:46:11,0.01,0.20,0.00,24.96,28.47,30.80,13.53,43.45,1002.48,2029.01,3493.91,3019.70,3451.97,599.89,583.79,28.41,0000 0000 0000 0000 000000
2017-09-01 08:51:13,0.03,0.21,0.00,24.96,28.47,30.80,13.55,43.34,1002.51,2029.00,3493.12,3019.06,3451.35,599.78,583.68,28.46,0000 0000 0000 0000 000000
2017-09-01 08:56:14,0.00,0.21,0.00,24.94,28.47,30.81,13.55,43.31,1002.54,2029.00,3492.97,3018.99,3451.00,599.88,583.87,28.51,0000 0000 0000 0000 000000
2017-09-01 09:01:15,0.02,0.21,0.00,24.92,28.47,30.80,13.58,43.35,1002.48,2029.00,3492.39,3018.74,3450.80,600.17,584.13,28.56,0000 0000 0000 0000 000000
2017-09-01 09:06:17,0.02,0.21,0.00,24.94,28.47,30.80,13.58,43.30,1002.47,2029.00,3492.01,3018.08,3450.07,599.90,583.83,28.61,0000 0000 0000 0000 000000
2017-09-01 09:11:18,0.01,0.21,0.00,24.94,28.47,30.80,13.62,43.42,1002.47,2029.00,3491.75,3017.99,3449.98,600.17,584.02,28.66,0000 0000 0000 0000 000000
2017-09-01 09:16:19,0.03,0.21,0.00,24.95,28.47,30.80,13.56,43.27,1002.46,2029.00,3491.03,3017.76,3449.34,599.90,583.79,28.71,0000 0000 0000 0000 000000
2017-09-01 09:21:20,0.01,0.21,0.00,24.94,28.47,30.81,13.57,43.42,1002.46,2029.00,3490.97,3017.12,3449.01,599.96,583.74,28.76,0000 0000 0000 0000 000000
2017-09-01 09:26:21,0.01,0.21,0.00,24.95,28.47,30.82,13.62,43.46,1002.46,2029.00,3490.53,3017.02,3449.00,600.26,584.14,28.81,0000 0000 0000 0000 000000
2017-09-01 09:31:23,0.00,0.21,0.00,24.94,28.47,30.82,13.54,43.36,1002.47,2029.00,3490.02,3017.00,3448.92,599.76,583.72,28.86,0000 0000 0000 0000 000000
2017-09-01 09:36:24,0.01,0.21,0.00,24.92,28.47,30.81,13.60,43.40,1002.46,2029.00,3489.99,3016.98,3448.39,600.16,584.09,28.91,0000 0000 0000 0000 000000
2017-09-01 09:41:25,0.01,0.21,0.00,24.95,28.47,30.81,13.61,43.48,1002.46,2029.00,3489.77,3016.88,3448.04,600.06,583.99,28.96,0000 0000 0000 0000 000000
2017-09-01 09:46:26,0.02,0.22,0.00,24.96,28.47,30.82,13.60,43.29,1002.46,2029.00,3489.16,3016.33,3448.00,599.75,583.60,29.01,0000 0000 0000 0000 000000
2017-09-01 09:51:28,0.00,0.22,0.00,24.97,28.48,30.82,13.60,43.34,1002.42,2029.00,3488.89,3016.02,3447.86,600.12,584.03,29.06,0000 0000 0000 0000 000000
2017-09-01 09:56:29,0.04,0.22,0.00,24.94,28.48,30.82,13.54,43.33,1002.39,2029.00,3487.77,3015.80,3447.05,599.61,583.49,29.12,0000 0000 0000 0000 000000
2017-09-01 10:01:31,0.02,0.22,0.00,24.92,28.49,30.83,13.52,43.41,1002.42,2029.00,3487.02,3015.12,3446.94,599.78,583.70,29.17,0000 0000 0000 0000 000000
2017-09-01 10:06:32,0.01,0.22,0.00,24.96,28.49,30.82,13.52,43.38,1002.18,2029.00,3486.99,3015.00,3446.40,599.97,583.67,29.21,0000 0000 0000 0000 000000
2017-09-01 10:11:33,0.01,0.22,0.00,24.96,28.49,30.82,13.47,43.27,1002.08,2029.00,3486.65,3015.00,3446.03,600.02,583.60,29.27,0000 0000 0000 0000 000000
2017-09-01 10:16:35,0.01,0.22,0.00,24.94,28.49,30.82,13.59,43.37,1002.02,2029.00,3486.04,3014.96,3446.00,599.90,583.52,29.32,0000 0000 0000 0000 000000
2017-09-01 10:21:36,0.02,0.22,0.00,24.95,28.49,30.83,13.54,43.34,1001.98,2029.00,3485.96,3014.48,3445.82,600.04,583.62,29.37,0000 0000 0000 0000 000000
2017-09-01 10:26:37,0.02,0.22,0.00,24.97,28.50,30.82,13.59,43.37,1001.97,2029.00,3485.50,3014.10,3445.27,600.05,583.58,29.42,0000 0000 0000 0000 000000
2017-09-01 10:31:39,0.00,0.22,0.00,24.96,28.50,30.83,13.51,43.33,1001.97,2029.00,3485.01,3014.00,3445.01,599.85,583.51,29.47,0000 0000 0000 0000 000000
2017-09-01 10:36:40,0.00,0.22,0.00,24.95,28.50,30.84,13.61,43.43,1001.97,2029.00,3484.89,3014.00,3444.98,599.82,583.40,29.52,0000 0000 0000 0000 000000
2017-09-01 10:41:41,0.04,0.23,0.00,24.96,28.50,30.84,13.60,43.37,1001.97,2029.00,3484.08,3013.66,3444.35,600.14,583.81,29.57,0000 0000 0000 0000 000000
2017-09-01 10:46:43,0.01,0.23,0.00,24.97,28.50,30.84,13.56,43.42,1001.96,2029.00,3483.97,3013.05,3444.01,599.96,583.61,29.62,0000 0000 0000 0000 000000
2017-09-01 10:51:44,0.01,0.23,0.00,24.97,28.50,30.85,13.64,43.42,1001.93,2029.00,3483.26,3012.99,3443.97,599.69,583.20,29.67,0000 0000 0000 0000 000000
2017-09-01 10:56:45,0.01,0.23,0.00,24.98,28.50,30.84,13.50,43.39,1001.94,2029.00,3483.00,3012.96,3443.41,599.58,583.12,29.72,0000 0000 0000 0000 000000
2017-09-01 11:01:46,0.01,0.23,0.00,24.99,28.50,30.83,13.57,43.37,1001.94,2029.00,3482.85,3012.67,3443.01,599.99,583.53,29.77,0000 0000 0000 0000 000000
2017-09-01 11:06:47,0.02,0.23,0.00,24.99,28.50,30.84,13.56,43.34,1001.96,2029.00,3482.14,3012.11,3443.00,599.79,583.29,29.82,0000 0000 0000 0000 000000
2017-09-01 11:11:49,0.01,0.23,0.00,24.99,28.50,30.84,13.54,43.41,1001.97,2029.00,3481.81,3011.97,3442.67,599.93,583.47,29.87,0000 0000 0000 0000 000000
2017-09-01 11:16:50,0.12,0.23,0.00,24.99,28.50,30.85,13.55,43.38,1001.97,2028.99,3479.68,3010.59,3441.01,599.79,583.33,29.92,0000 0000 0000 0000 000000
2017-09-01 11:21:52,0.18,0.24,0.00,25.01,28.50,30.84,13.58,43.41,1001.97,2028.99,3475.59,3008.09,3438.12,599.97,583.47,29.97,0000 0000 0000 0000 000000
2017-09-01 11:26:53,0.14,0.25,0.00,25.02,28.51,30.85,13.59,43.39,1001.97,2028.99,3471.96,3005.90,3435.54,600.00,583.47,30.02,0000 0000 0000 0000 000000
2017-09-01 11:31:54,0.11,0.26,0.00,25.04,28.52,30.85,13.49,43.29,1001.97,2028.99,3469.17,3004.22,3433.72,599.95,583.38,30.07,0000 0000 0000 0000 000000
2017-09-01 11:36:56,0.14,0.26,0.00,25.05,28.52,30.86,13.52,43.39,1001.97,2028.99,3465.46,3002.41,3431.64,599.95,583.31,30.12,0000 0000 0000 0000 000000
2017-09-01 11:41:57,0.06,0.27,0.00,25.06,28.52,30.87,13.46,43.41,1001.97,2028.99,3463.47,3001.20,3430.33,599.79,583.32,30.17,0000 0000 0000 0000 000000
2017-09-01 11:46:59,0.00,0.27,0.00,25.06,28.52,30.87,13.60,43.44,1001.95,2028.99,3462.93,3000.99,3429.99,599.83,583.10,30.22,0000 0000 0000 0000 000000
2017-09-01 11:52:00,0.03,0.27,0.00,25.09,28.53,30.87,13.51,43.48,1001.85,2028.98,3462.16,3000.75,3429.50,600.10,583.33,30.27,0000 0000 0000 0000 000000
2017-09-01 11:57:01,0.02,0.27,0.00,25.10,28.55,30.87,13.62,43.36,1001.66,2028.99,3461.90,3000.05,3429.02,600.36,583.44,30.32,0000 0000 0000 0000 000000
2017-09-01 12:02:02,0.02,0.27,0.00,25.10,28.55,30.89,13.61,43.42,1001.65,2028.98,3461.10,2999.98,3428.79,600.20,583.19,30.37,0000 0000 0000 0000 000000
2017-09-01 12:07:04,0.02,0.27,0.00,25.10,28.55,30.90,13.57,43.31,1001.57,2028.99,3460.76,2999.70,3428.07,599.92,582.98,30.42,0000 0000 0000 0000 000000
2017-09-01 12:12:05,0.02,0.28,0.00,25.13,28.56,30.90,13.51,43.37,1001.48,2028.99,3460.04,2999.05,3427.98,599.94,582.82,30.47,0000 0000 0000 0000 000000
2017-09-01 12:17:07,0.02,0.28,0.00,25.15,28.57,30.91,13.51,43.46,1001.48,2028.98,3459.76,2998.98,3427.42,599.75,582.72,30.52,0000 0000 0000 0000 000000
2017-09-01 12:22:08,0.02,0.28,0.00,25.14,28.57,30.92,13.57,43.51,1001.48,2028.90,3459.03,2998.40,3427.00,600.01,582.89,30.57,0000 0000 0000 0000 000000
2017-09-01 12:27:09,0.01,0.28,0.00,25.15,28.58,30.93,13.53,43.47,1001.48,2028.95,3458.94,2998.06,3426.95,600.11,583.04,30.62,0000 0000 0000 0000 000000
2017-09-01 12:32:10,0.01,0.28,0.00,25.15,28.59,30.93,13.57,43.48,1001.48,2028.77,3458.13,2998.00,3426.15,600.03,582.94,30.67,0000 0000 0000 0000 000000
2017-09-01 12:37:12,0.01,0.28,0.00,25.15,28.60,30.95,13.59,43.53,1001.48,2028.72,3457.79,2997.70,3425.98,599.98,582.98,30.72,0000 0000 0000 0000 000000
2017-09-01 12:42:13,0.03,0.28,0.00,25.17,28.60,30.94,13.52,43.53,1001.48,2028.70,3457.05,2997.04,3425.37,599.85,582.73,30.77,0000 0000 0000 0000 000000
2017-09-01 12:47:14,-0.02,0.28,0.00,25.18,28.61,30.96,13.53,43.47,1001.47,2028.48,3456.74,2996.99,3425.00,600.01,582.80,30.82,0000 0000 0000 0000 000000
2017-09-01 12:52:15,0.02,0.28,0.00,25.18,28.62,30.96,13.56,43.47,1001.15,2028.35,3456.06,2996.62,3424.76,600.17,582.83,30.87,0000 0000 0000 0000 000000
2017-09-01 12:57:17,0.00,0.28,0.00,25.18,28.62,30.98,13.56,43.45,1001.00,2028.09,3455.78,2996.01,3424.05,600.08,582.78,30.92,0000 0000 0000 0000 000000